GAF921 LSZH-EDDB

Flight info

Callsign GAF921
Flight time 0h 57m
Altitude 41000
Route DEGES2Y DEGES Z1 ETAGO DCT TIKNI T279 TAMEB T278 KLF KLF1R
Aircraft A359/H-SDE2E3GHIJ3J4J5LM1ORWXY/LB1D1

Departure

Time 2026-05-05 19:52
Airport Zürich Airport (LSZH)

Arrival

Time 2026-05-05 20:49
Airport Berlin Brandenburg Airport (EDDB)
Time Latitude Longitude Altitude Speed Heading
2026-05-05 19:12 47.44169 8.56165 1415 ft 0 kts 244°
2026-05-05 19:31 47.44173 8.56175 1406 ft 4 kts 248°
2026-05-05 19:31 47.44177 8.56209 1399 ft 4 kts 285°
2026-05-05 19:31 47.44164 8.56238 1417 ft 6 kts 329°
2026-05-05 19:31 47.44155 8.56246 1414 ft 4 kts 335°
2026-05-05 19:33 47.44157 8.56244 1415 ft 2 kts 335°
2026-05-05 19:33 47.44221 8.56201 1414 ft 17 kts 335°
2026-05-05 19:34 47.44351 8.56101 1413 ft 23 kts 325°
2026-05-05 19:34 47.44499 8.55987 1410 ft 26 kts 334°
2026-05-05 19:34 47.44667 8.55872 1407 ft 28 kts 335°
2026-05-05 19:35 47.44862 8.55738 1411 ft 0 kts 335°
2026-05-05 19:40 47.44875 8.55730 1412 ft 9 kts 335°
2026-05-05 19:40 47.44966 8.55668 1412 ft 18 kts 334°
2026-05-05 19:41 47.45104 8.55573 1415 ft 25 kts 334°
2026-05-05 19:41 47.45271 8.55459 1414 ft 27 kts 335°
2026-05-05 19:41 47.45450 8.55337 1415 ft 30 kts 335°
2026-05-05 19:41 47.45620 8.55222 1411 ft 12 kts 341°
2026-05-05 19:42 47.45681 8.55274 1408 ft 10 kts 85°
2026-05-05 19:42 47.45672 8.55382 1412 ft 11 kts 97°
2026-05-05 19:42 47.45664 8.55499 1413 ft 12 kts 96°
2026-05-05 19:42 47.45654 8.55624 1410 ft 13 kts 95°
2026-05-05 19:43 47.45645 8.55757 1418 ft 13 kts 96°
2026-05-05 19:43 47.45636 8.55893 1415 ft 14 kts 96°
2026-05-05 19:43 47.45626 8.56035 1418 ft 12 kts 96°
2026-05-05 19:43 47.45624 8.56065 1417 ft 0 kts 96°
2026-05-05 19:44 47.45622 8.56092 1420 ft 6 kts 96°
2026-05-05 19:45 47.45617 8.56158 1424 ft 7 kts 96°
2026-05-05 19:45 47.45611 8.56231 1420 ft 6 kts 89°
2026-05-05 19:45 47.45617 8.56240 1420 ft 0 kts 44°
2026-05-05 19:46 47.45620 8.56242 1425 ft 3 kts 38°
2026-05-05 19:47 47.45691 8.56274 1424 ft 18 kts
2026-05-05 19:47 47.45818 8.56294 1426 ft 19 kts
2026-05-05 19:47 47.45874 8.56302 1425 ft 0 kts
2026-05-05 19:49 47.45880 8.56303 1425 ft 5 kts
2026-05-05 19:49 47.45964 8.56317 1423 ft 12 kts
2026-05-05 19:49 47.46008 8.56324 1419 ft 0 kts
2026-05-05 19:50 47.46013 8.56324 1420 ft 7 kts
2026-05-05 19:50 47.46130 8.56344 1420 ft 21 kts
2026-05-05 19:50 47.46249 8.56284 1421 ft 12 kts 316°
2026-05-05 19:51 47.46252 8.56280 1420 ft 0 kts 316°
2026-05-05 19:51 47.46273 8.56251 1419 ft 29 kts 316°
2026-05-05 19:51 47.46690 8.55679 1410 ft 131 kts 317°
2026-05-05 19:52 47.47559 8.54513 1624 ft 196 kts 316°
2026-05-05 19:52 47.48611 8.53121 2758 ft 214 kts 317°
2026-05-05 19:52 47.49857 8.51722 3690 ft 225 kts 319°
2026-05-05 19:52 47.50951 8.50154 4440 ft 215 kts 302°
2026-05-05 19:53 47.51579 8.48219 5097 ft 206 kts 281°
2026-05-05 19:53 47.51777 8.46134 5726 ft 204 kts 270°
2026-05-05 19:53 47.51583 8.44073 6365 ft 203 kts 249°
2026-05-05 19:53 47.50792 8.42374 7078 ft 205 kts 223°
2026-05-05 19:54 47.49511 8.41395 7942 ft 214 kts 197°
2026-05-05 19:54 47.48025 8.41451 8780 ft 224 kts 168°
2026-05-05 19:54 47.46645 8.42617 9671 ft 237 kts 140°
2026-05-05 19:54 47.45770 8.44742 10410 ft 257 kts 111°
2026-05-05 19:55 47.45557 8.47512 10804 ft 287 kts 93°
2026-05-05 19:55 47.45593 8.50600 11166 ft 313 kts 91°
2026-05-05 19:55 47.45638 8.53942 11536 ft 337 kts 92°
2026-05-05 19:55 47.45701 8.57528 11833 ft 363 kts 89°
2026-05-05 19:56 47.45868 8.61352 11900 ft 378 kts 88°
2026-05-05 19:56 47.46047 8.65248 11882 ft 381 kts 88°
2026-05-05 19:56 47.46214 8.69176 12122 ft 385 kts 88°
2026-05-05 19:56 47.46373 8.73075 12886 ft 387 kts 89°
2026-05-05 19:57 47.46526 8.77071 13806 ft 391 kts 89°
2026-05-05 19:57 47.46641 8.81104 14577 ft 394 kts 92°
2026-05-05 19:57 47.46328 8.85112 15389 ft 394 kts 103°
2026-05-05 19:57 47.45763 8.89078 16211 ft 395 kts 105°
2026-05-05 19:58 47.45176 8.93053 17078 ft 396 kts 104°
2026-05-05 19:58 47.44598 8.97045 17889 ft 400 kts 104°
2026-05-05 19:58 47.44014 9.01089 18623 ft 404 kts 104°
2026-05-05 19:58 47.43427 9.05173 19304 ft 409 kts 104°
2026-05-05 19:59 47.42830 9.09300 20008 ft 413 kts 105°
2026-05-05 19:59 47.42238 9.13474 20694 ft 419 kts 103°
2026-05-05 19:59 47.41967 9.17792 21362 ft 427 kts 91°
2026-05-05 19:59 47.42384 9.22116 21915 ft 440 kts 77°
2026-05-05 20:00 47.43543 9.26358 22520 ft 448 kts 65°
2026-05-05 20:00 47.44999 9.30444 23290 ft 452 kts 62°
2026-05-05 20:00 47.46644 9.34423 23736 ft 456 kts 55°
2026-05-05 20:00 47.48722 9.37988 23892 ft 460 kts 44°
2026-05-05 20:01 47.51259 9.40869 23921 ft 460 kts 30°
2026-05-05 20:01 47.54155 9.42900 24162 ft 462 kts 20°
2026-05-05 20:01 47.57205 9.44445 24733 ft 464 kts 12°
2026-05-05 20:01 47.60383 9.45219 25363 ft 463 kts
2026-05-05 20:02 47.63609 9.45554 25960 ft 466 kts
2026-05-05 20:02 47.66804 9.45745 26597 ft 467 kts 360°
2026-05-05 20:02 47.70072 9.45880 27147 ft 471 kts 359°
2026-05-05 20:02 47.73364 9.46003 27688 ft 476 kts 359°
2026-05-05 20:03 47.76688 9.46138 28228 ft 480 kts 359°
2026-05-05 20:03 47.80039 9.46290 28755 ft 484 kts 360°
2026-05-05 20:03 47.83415 9.46400 29258 ft 487 kts 358°
2026-05-05 20:03 47.86811 9.46404 29840 ft 489 kts 357°
2026-05-05 20:04 47.90227 9.46363 30277 ft 493 kts 357°
2026-05-05 20:04 47.93672 9.46311 30641 ft 497 kts 357°
2026-05-05 20:04 47.97100 9.46268 31003 ft 501 kts 357°
2026-05-05 20:04 48.00593 9.46237 31356 ft 505 kts 357°
2026-05-05 20:05 48.04119 9.46217 31716 ft 508 kts 357°
2026-05-05 20:05 48.07659 9.46204 32078 ft 511 kts 358°
2026-05-05 20:05 48.15045 9.46189 32734 ft 517 kts 358°
2026-05-05 20:05 48.29412 9.46192 34521 ft 514 kts 358°
2026-05-05 20:06 48.43751 9.46216 35856 ft 515 kts 358°
2026-05-05 20:06 48.50275 9.46221 36407 ft 515 kts 358°
2026-05-05 20:06 48.53859 9.46224 36700 ft 516 kts 358°
2026-05-05 20:06 48.57450 9.46207 37010 ft 516 kts 358°
2026-05-05 20:07 48.60989 9.46168 37309 ft 516 kts 358°
2026-05-05 20:07 48.64577 9.46118 37591 ft 516 kts 358°
2026-05-05 20:07 48.68171 9.46067 37878 ft 516 kts 358°
2026-05-05 20:07 48.71766 9.46114 38176 ft 517 kts
2026-05-05 20:08 48.75343 9.46692 38482 ft 517 kts
2026-05-05 20:08 48.78909 9.47440 38701 ft 517 kts
2026-05-05 20:08 48.82467 9.48253 38928 ft 517 kts
2026-05-05 20:08 48.86024 9.49102 39163 ft 517 kts
2026-05-05 20:09 48.89571 9.49964 39375 ft 516 kts
2026-05-05 20:09 48.93065 9.50814 39592 ft 515 kts
2026-05-05 20:09 48.96603 9.51674 39856 ft 514 kts
2026-05-05 20:09 49.00134 9.52528 40062 ft 514 kts
2026-05-05 20:10 49.03663 9.53378 40255 ft 513 kts
2026-05-05 20:10 49.07189 9.54226 40445 ft 513 kts
2026-05-05 20:10 49.10718 9.55076 40630 ft 513 kts
2026-05-05 20:10 49.16545 9.56481 40826 ft 514 kts
2026-05-05 20:11 49.20072 9.57333 40830 ft 513 kts
2026-05-05 20:11 49.27117 9.59040 40828 ft 513 kts
2026-05-05 20:12 49.34125 9.60743 40826 ft 513 kts
2026-05-05 20:12 49.41167 9.62458 40824 ft 513 kts
2026-05-05 20:13 49.48215 9.64179 40823 ft 513 kts
2026-05-05 20:13 49.55267 9.65907 40824 ft 513 kts
2026-05-05 20:14 49.62265 9.67628 40820 ft 512 kts
2026-05-05 20:14 49.69302 9.69363 40823 ft 512 kts
2026-05-05 20:15 49.76338 9.71103 40823 ft 512 kts
2026-05-05 20:15 49.83372 9.72848 40821 ft 512 kts
2026-05-05 20:16 49.90357 9.74585 40822 ft 512 kts
2026-05-05 20:16 49.97384 9.76338 40822 ft 511 kts
2026-05-05 20:17 50.04413 9.78096 40815 ft 511 kts
2026-05-05 20:17 50.11420 9.79854 40817 ft 510 kts
2026-05-05 20:18 50.18384 9.81606 40813 ft 510 kts
2026-05-05 20:18 50.25389 9.83374 40817 ft 510 kts
2026-05-05 20:19 50.32390 9.85146 40810 ft 509 kts
2026-05-05 20:19 50.39202 9.88131 40810 ft 511 kts 24°
2026-05-05 20:20 50.45080 9.94281 40815 ft 510 kts 44°
2026-05-05 20:20 50.50056 10.02131 40814 ft 511 kts 47°
2026-05-05 20:21 50.54906 10.10315 40806 ft 512 kts 48°
2026-05-05 20:21 50.59748 10.18527 40803 ft 512 kts 47°
2026-05-05 20:22 50.64514 10.26846 40805 ft 511 kts 53°
2026-05-05 20:22 50.68244 10.36246 40791 ft 509 kts 62°
2026-05-05 20:23 50.71657 10.46045 40792 ft 510 kts 63°
2026-05-05 20:23 50.75000 10.55909 40793 ft 510 kts 63°
2026-05-05 20:24 50.78346 10.65790 40795 ft 510 kts 63°
2026-05-05 20:24 50.81698 10.75677 40798 ft 510 kts 63°
2026-05-05 20:25 50.85019 10.85499 40802 ft 510 kts 63°
2026-05-05 20:25 50.88369 10.95430 40802 ft 512 kts 63°
2026-05-05 20:26 50.91274 11.04080 40796 ft 512 kts 63°
2026-05-05 20:26 50.94611 11.14054 40802 ft 512 kts 63°
2026-05-05 20:27 50.97939 11.24045 40794 ft 512 kts 64°
2026-05-05 20:27 51.01266 11.34047 40790 ft 512 kts 64°
2026-05-05 20:28 51.04578 11.44069 40783 ft 513 kts 64°
2026-05-05 20:28 51.07894 11.54134 40794 ft 514 kts 64°
2026-05-05 20:29 51.11180 11.64171 40522 ft 513 kts 64°
2026-05-05 20:29 51.12825 11.69210 39849 ft 514 kts 64°
2026-05-05 20:29 51.14475 11.74264 39142 ft 516 kts 65°
2026-05-05 20:29 51.16126 11.79350 38468 ft 517 kts 65°
2026-05-05 20:30 51.17774 11.84442 37693 ft 517 kts 65°
2026-05-05 20:30 51.19413 11.89516 36986 ft 514 kts 65°
2026-05-05 20:30 51.21256 11.94400 36305 ft 515 kts 54°
2026-05-05 20:30 51.23518 11.98724 35582 ft 515 kts 50°
2026-05-05 20:31 51.25914 12.02951 34849 ft 514 kts 49°
2026-05-05 20:31 51.28372 12.07122 34038 ft 516 kts 48°
2026-05-05 20:31 51.30859 12.11268 33129 ft 516 kts 48°
2026-05-05 20:31 51.33346 12.15404 32229 ft 516 kts 48°
2026-05-05 20:32 51.35830 12.19550 31372 ft 516 kts 48°
2026-05-05 20:32 51.38307 12.23710 30441 ft 517 kts 48°
2026-05-05 20:32 51.40788 12.27899 29438 ft 519 kts 48°
2026-05-05 20:32 51.43230 12.32043 28573 ft 517 kts 48°
2026-05-05 20:33 51.45685 12.36217 27907 ft 510 kts 48°
2026-05-05 20:33 51.48100 12.40334 27257 ft 504 kts 48°
2026-05-05 20:33 51.50493 12.44420 26581 ft 500 kts 48°
2026-05-05 20:33 51.52863 12.48473 25916 ft 495 kts 48°
2026-05-05 20:34 51.55208 12.52492 25248 ft 491 kts 48°
2026-05-05 20:34 51.57503 12.56430 24611 ft 487 kts 48°
2026-05-05 20:34 51.59805 12.60386 23986 ft 482 kts 48°
2026-05-05 20:34 51.62138 12.64180 23597 ft 472 kts 42°
2026-05-05 20:35 51.64723 12.67356 22583 ft 463 kts 32°
2026-05-05 20:35 51.67591 12.69631 20937 ft 460 kts 19°
2026-05-05 20:35 51.70710 12.70675 19321 ft 458 kts
2026-05-05 20:35 51.73865 12.70496 17912 ft 451 kts 354°
2026-05-05 20:36 51.76966 12.70004 16453 ft 443 kts 353°
2026-05-05 20:36 51.79993 12.69503 15121 ft 433 kts 353°
2026-05-05 20:36 51.82956 12.69023 13809 ft 423 kts 354°
2026-05-05 20:36 51.85809 12.68571 12724 ft 409 kts 353°
2026-05-05 20:37 51.88548 12.68144 12203 ft 381 kts 354°
2026-05-05 20:37 51.91096 12.67747 11758 ft 355 kts 354°
2026-05-05 20:37 51.93496 12.67374 11449 ft 335 kts 353°
2026-05-05 20:37 51.95749 12.67025 11011 ft 317 kts 354°
2026-05-05 20:38 51.97910 12.66688 10406 ft 307 kts 354°
2026-05-05 20:38 51.99959 12.66369 10231 ft 288 kts 354°
2026-05-05 20:38 52.01941 12.66060 9900 ft 284 kts 354°
2026-05-05 20:38 52.03899 12.65755 9572 ft 285 kts 354°
2026-05-05 20:39 52.05883 12.65447 9255 ft 293 kts 354°
2026-05-05 20:39 52.07910 12.65132 8945 ft 293 kts 354°
2026-05-05 20:39 52.09925 12.64820 8630 ft 289 kts 354°
2026-05-05 20:39 52.11920 12.64510 8333 ft 287 kts 354°
2026-05-05 20:40 52.13902 12.64529 8027 ft 286 kts 10°
2026-05-05 20:40 52.15716 12.65743 7720 ft 282 kts 34°
2026-05-05 20:40 52.17139 12.67899 7414 ft 279 kts 54°
2026-05-05 20:40 52.18037 12.70682 7114 ft 277 kts 68°
2026-05-05 20:41 52.18740 12.73585 6818 ft 275 kts 69°
2026-05-05 20:41 52.19420 12.76451 6516 ft 274 kts 69°
2026-05-05 20:41 52.20112 12.79328 6235 ft 271 kts 69°
2026-05-05 20:41 52.20802 12.82172 5938 ft 269 kts 69°
2026-05-05 20:42 52.21488 12.85005 5671 ft 268 kts 69°
2026-05-05 20:42 52.22176 12.87835 5467 ft 268 kts 69°
2026-05-05 20:42 52.22858 12.90623 5326 ft 259 kts 69°
2026-05-05 20:42 52.23518 12.93339 5259 ft 263 kts 69°
2026-05-05 20:43 52.24188 12.96102 5149 ft 267 kts 69°
2026-05-05 20:43 52.24869 12.98904 5013 ft 265 kts 69°
2026-05-05 20:43 52.25550 13.01695 4909 ft 265 kts 69°
2026-05-05 20:43 52.26225 13.04490 4800 ft 265 kts 69°
2026-05-05 20:44 52.26895 13.07277 4733 ft 263 kts 69°
2026-05-05 20:44 52.27561 13.10062 4685 ft 263 kts 70°
2026-05-05 20:44 52.28221 13.12825 4651 ft 256 kts 69°
2026-05-05 20:44 52.28858 13.15489 4392 ft 249 kts 69°
2026-05-05 20:45 52.30115 13.20633 3759 ft 242 kts 67°
2026-05-05 20:45 52.30735 13.23172 3412 ft 239 kts 68°
2026-05-05 20:45 52.31344 13.25649 3189 ft 232 kts 69°
2026-05-05 20:46 52.31928 13.28088 2879 ft 229 kts 69°
2026-05-05 20:46 52.32482 13.30527 2525 ft 228 kts 70°
2026-05-05 20:46 52.33014 13.32878 2253 ft 212 kts 70°
2026-05-05 20:46 52.33527 13.35043 1970 ft 195 kts 68°
2026-05-05 20:47 52.34030 13.36988 1731 ft 178 kts 68°
2026-05-05 20:47 52.34461 13.38807 1447 ft 164 kts 69°
2026-05-05 20:47 52.34859 13.40486 1215 ft 154 kts 69°
2026-05-05 20:47 52.35237 13.42077 968 ft 147 kts 68°
2026-05-05 20:48 52.35584 13.43574 737 ft 137 kts 66°
2026-05-05 20:48 52.35924 13.44965 600 ft 128 kts 64°
2026-05-05 20:48 52.36243 13.46304 405 ft 127 kts 63°
2026-05-05 20:48 52.36571 13.47682 277 ft 131 kts 65°
2026-05-05 20:49 52.36900 13.49058 162 ft 127 kts 70°
2026-05-05 20:49 52.37150 13.50114 161 ft 86 kts 69°
2026-05-05 20:49 52.37311 13.50789 161 ft 41 kts 69°
2026-05-05 20:49 52.37385 13.51100 161 ft 28 kts 69°
2026-05-05 20:50 52.37508 13.51333 161 ft 28 kts 29°
2026-05-05 20:50 52.37696 13.51402 161 ft 28 kts
2026-05-05 20:50 52.37854 13.51436 161 ft 16 kts
2026-05-05 20:50 52.37922 13.51427 161 ft 3 kts 303°
2026-05-05 20:51 52.37922 13.51316 161 ft 15 kts 256°
2026-05-05 20:51 52.37900 13.51133 161 ft 18 kts 265°
2026-05-05 20:51 52.37907 13.50960 161 ft 11 kts 303°
2026-05-05 20:51 52.37970 13.50883 161 ft 9 kts 346°
2026-05-05 20:52 52.38005 13.50920 161 ft 7 kts 51°
2026-05-05 20:52 52.38026 13.50967 162 ft 0 kts 58°
2026-05-05 21:00 52.38030 13.50978 161 ft 10 kts 58°
2026-05-05 21:00 52.38054 13.51109 161 ft 10 kts 117°
2026-05-05 21:00 52.37986 13.51085 161 ft 9 kts 234°
2026-05-05 21:00 52.38003 13.51103 161 ft 16 kts 357°
2026-05-05 21:01 52.38030 13.51120 161 ft 11 kts 131°
2026-05-05 21:01 52.37978 13.51064 161 ft 16 kts 234°
2026-05-05 21:01 52.37940 13.50956 161 ft 11 kts 267°
2026-05-05 21:01 52.37977 13.50873 161 ft 12 kts 319°
2026-05-05 21:02 52.37991 13.50799 161 ft 7 kts 266°
2026-05-05 21:02 52.37971 13.50747 161 ft 7 kts 218°
2026-05-05 21:02 52.37957 13.50731 161 ft 4 kts 212°
2026-05-05 21:06 52.37957 13.50729 161 ft 0 kts 217°
2026-05-05 21:06 52.37954 13.50727 161 ft 0 kts 216°